Location: Barruelo
(41.2448°N, 3.8231°W)
Time: 21:32:58
(UTC+00:00)

EXPRESS MD2 - Pass Details

Date: 11 December 2025
Orbit: 258 x 2835 km, 49.8° (Epoch: 11 January)

Event Time Altitude Azimuth Distance (km) Brightness Sun altitude
Rises 17:46:45 0° 222° (SW) 1,868 7.3 -11.1°
Reaches altitude 10° 17:48:24 10° 215° (SW) 1,136 5.9 -11.3°
Maximum altitude 17:50:41 45° 140° (SE) 481 2.9 -11.8°
Enters shadow 17:52:27 21° 75° (ENE) 989 4.0 -12.1°
